Regional Weather Roundup
Issued by NWS San Diego, CA

Home | Current Version | Previous Version | Text Only | Print | Product List | Glossary On
Versions: 1 2 3 4 5 6 7 8 9 10 11 12 13 14 15 16 17 18 19 20 21 22 23 24 25 26 27 28 29 30 31 32 33 34 35 36 37 38 39 40 41 42 43 44 45 46 47 48 49 50
000
ASUS46 KSGX 011710
RWRSGX

SAN DIEGO HOURLY WEATHER ROUNDUP
NATIONAL WEATHER SERVICE SAN DIEGO CA
900 AM PST SUN FEB 01 2015

NOTE: "FAIR" INDICATES FEW OR NO CLOUDS BELOW 12,000 FEET WITH NO
SIGNIFICANT WEATHER AND/OR OBSTRUCTIONS TO VISIBILITY.

CAZ042-043-060-061-PZZ750-775-011800-

GREATER SAN DIEGO AREA

CITY           SKY/WX    TMP DP  RH WIND       PRES   REMARKS
LINDBERGH FLD  MOSUNNY   60  47  61 CALM      30.12R
POINT LOMA       N/A     62  47  57 E3          N/A
NATIONAL CITY    N/A     59  52  78 E2        30.11R
CHULA VISTA      N/A     59  51  73 CALM      30.04R
IMPERIAL BEACH SUNNY     62  49  62 E8        30.11R
BROWN FIELD    SUNNY     59  49  69 SE8       30.11R
MIRAMAR MCAS   SUNNY     65  46  50 CALM      30.10R
MONTGOMERY FLD SUNNY     63  47  55 CALM      30.11R

$$

NORTH SAN DIEGO COUNTY

CITY           SKY/WX    TMP DP  RH WIND       PRES   REMARKS
CAMP PENDLETON SUNNY     54  47  77 CALM      30.11R
OCEANSIDE AP   SUNNY     57  47  69 NE8       30.10R
OCEANSIDE HBR    N/A     58  50  76 NE3       30.13R
VISTA            N/A     55  50  82 CALM      30.10R
CARLSBAD       SUNNY     60  48  64 E5        30.09S
DEL MAR          N/A     56  51  83 CALM      30.13R
LA JOLLA SCRIP   N/A     60  56  88 CALM      30.09R
FALLBROOK        N/A     59  51  73 CALM      30.12S
ESCONDIDO        N/A     58  49  70 CALM      30.13R
SAN MARCOS       N/A     61  49  65 CALM      30.10R
POWAY            N/A     53  51  93 CALM      30.14R

$$

EAST SAN DIEGO COUNTY

CITY           SKY/WX    TMP DP  RH WIND       PRES   REMARKS
RAMONA         SUNNY     57  45  64 CALM      30.12R
SANTEE LAKES     N/A     55  51  86 CALM      30.13R
LA MESA          N/A     56  47  70 E7        30.05R
JAMUL            N/A     58  48  69 CALM      30.11R
DESCANSO N       N/A     58  39  49 CALM      30.07R
MT. LAGUNA OBS   N/A     44  26  50 E17       29.73R
CAMPO            N/A     58  41  53 E8        30.09S

$$

ORANGE COUNTY AND THE LOS ANGELES BASIN

CITY           SKY/WX    TMP DP  RH WIND       PRES   REMARKS
JOHN WAYNE AP  SUNNY     61  50  67 N3        30.10R
LAGUNA BEACH     N/A     52  51  97 CALM      30.06S
LAKE FOREST FR   N/A     60  41  51 CALM      30.01R
SANTA ANA        N/A     57  53  87 CALM      30.06R
HUNTINGTON BCH   N/A     58  56  92 NE1       30.12R
LOS ALAMITOS   MOSUNNY   58  54  86 NE2       30.11R
FULLERTON      SUNNY     60  50  69 E3        30.10S
LONG BEACH     MOSUNNY   57  54  89 CALM      30.11R FOG
L.A. AP        MOSUNNY   59  52  77 E6        30.11R
L.A. DOWNTOWN  SUNNY     60  43  53 E6        30.10R

$$

THE INLAND EMPIRE

CITY           SKY/WX    TMP DP  RH WIND       PRES   REMARKS
CORONA         SUNNY     54  47  77 CALM      30.12S
CHINO          SUNNY     57  45  64 CALM      30.12S
ONTARIO        MOSUNNY   59  46  62 CALM      30.11R
SAN BERNARDINO SUNNY     57  37  47 SE3       30.12R
RIVERSIDE AP   SUNNY     58  44  60 CALM      30.11S
RIV CYN CREST    N/A     57  51  81 S8          N/A
MORENO VALLEY    N/A     60  50  70 CALM      29.32R
MARCH ARB      SUNNY     52  48  84 CALM      30.12R
HORSETHIEF CYN   N/A     55  44  67 E5        30.07R
PERRIS           N/A     50  48  93 CALM        N/A
MENIFEE          N/A     52  49  90 CALM      30.22R
HEMET EAST       N/A     59  36  41 CALM      30.13R
FRENCH VALLEY  FAIR      54  45  71 N3        30.13S
TEMECULA         N/A     47  46  97 CALM      30.10R

$$

SAN BERNARDINO AND RIVERSIDE COUNTY MOUNTAINS

CITY           SKY/WX    TMP DP  RH WIND       PRES   REMARKS
BIG BEAR AP    SUNNY     34  30  86 CALM      30.28R
PINE COVE        N/A     47  25  41 SW2       30.23R

$$

SOUTHERN DESERT INCLUDING THE COACHELLA VALLEY

CITY           SKY/WX    TMP DP  RH WIND       PRES   REMARKS
PALM SPRINGS   SUNNY     66  40  38 CALM      30.12R
THOUSAND PALMS   N/A     61  44  54 CALM      30.10R
PALM DESERT      N/A     63  48  57 CALM      26.43S
THERMAL        SUNNY     64  43  46 CALM      30.09R
BLYTHE         SUNNY     57  47  69 CALM      30.12R
IMPERIAL AP    SUNNY     62  45  53 CALM      30.10R
EL CENTRO NAS  SUNNY     61  47  59 W6        30.10R
YUMA AZ        SUNNY     62  52  69 NE6       30.10R
MEXICALI       SUNNY     63  46  55 CALM      30.11

$$

UPPER DESERT

CITY           SKY/WX    TMP DP  RH WIND       PRES   REMARKS
VICTORVILLE AP SUNNY     46  37  71 SE8       30.19S
HESPERIA         N/A     51  40  63 CALM      30.35R
APPLE VALLEY     N/A     46  40  78 CALM      30.22F
PALMDALE       SUNNY     47  38  71 CALM      30.19S
LANCASTER      SUNNY     44  36  73 CALM      30.20R
EDWARDS AFB    MOSUNNY   43  37  81 NE1       30.18R
DAGGETT        SUNNY     50  38  63 W9        30.18S
29 PALMS N     SUNNY     56  38  50 NW7       30.24R
NEEDLES        SUNNY     61  35  37 N9        30.15R

$$

REGIONAL REPORTS

CITY           SKY/WX    TMP DP  RH WIND       PRES   REMARKS
SANTA BARBARA  SUNNY     58  50  75 CALM      30.09R
SANDBERG       SUNNY     55  30  38 NE9       30.21R
MT. WILSON       N/A     57   5  12 NE3         N/A
LAS VEGAS NV   MOSUNNY   52  38  58 S7        30.17R
PHOENIX AZ     FOG       52  52 100 CALM      30.10R VSB 1/4
TIJUANA        SUNNY     57  45  62 E6        30.13R

$$

OFFSHORE ISLANDS

CITY           SKY/WX    TMP DP  RH WIND       PRES   REMARKS
CATALINA ARPT  SUNNY     65  38  36 SW7       30.13R
SAN NICOLAS IS SUNNY    N/A N/A N/A W5        30.11R

$$

MARINE AND OFFSHORE BUOY REPORTS

STATION/POSITION SKY/WX   TEMP    WIND        PRES    SWELL
                          AIR SEA DIR/SP/G            HT/PER/DIR
                          (F)     (DEG/KT/KT) (MB)    (FT/S/D)
TANNER BANKS               62 62  310/  8/ 10 1019.4R   7/280/14
S CLEMENTE BASIN           62 63  360/  4/  6 1019.2R   3/280/14
SAN NICOLAS IS.               62                N/A     3/290/13
SO. S. ROSA ISLA           61 60  320/ 10/ 12 1018.4R   5/14
W. S. BARBARA CH           60 60  310/ 12/ 16 1018.4R   5/290/14
S. MONICA BASIN            61 62   10/  4/  6 1019.3R   3/300/14
S PEDRO CHANNEL               62                N/A     2/270/13
DANA POINT                    62                N/A     2/280/14
CMP PENDLETON NS              62                N/A     2/250/14
OCEANSIDE OFFSHR              62                N/A     2/260/14
TORREY PINES OTR              62                N/A     3/270/13
LA JOLLA 1                 62 62  150/  3/  4 1019.8R
SAN DIEGO BAY                 62              1020.2R
POINT LOMA SOUTH              62                N/A     3/250/13

$$



USA.gov is the U.S. government's official web portal to all federal, state and local government web resources and services.